Gastonia, NC

4:03 AM EST on January 20, 2020 (GMT -0500)
Gastonia Municipal

Weather History for KAKH - November, 2019

Change the Weather History Date:

Tuesday, November 26, 2019

  Actual Average (KCLT) Record (KCLT)
Temperature  
Mean Temperature 50 °F -  
Max Temperature 63 °F 59 °F 75 °F (2001)
Min Temperature 37 °F 38 °F 11 °F (1950)
Degree Days  
Heating Degree Days 15    
Moisture  
Dew Point 38 °F    
Average Humidity 68    
Maximum Humidity 86    
Minimum Humidity 37    
Precipitation  
Precipitation 0.00 in - - ()
Sea Level Pressure  
Sea Level Pressure 30.03 in    
Wind  
Wind Speed 1 mph ()    
Max Wind Speed 8 mph    
Max Gust Speed -    
Visibility 9.5 miles    
Events      
Averages and records for this station are not official NWS values.
T = Trace of Precipitation, MM = Missing Value Source: Averaged Metar Reports

Daily Weather History Graph

Daily Weather History Graph

Search for Another Location

Airport or City:

Astronomy

Nov. 26, 2019 Rise Set
Actual Time 7:09 AM EST 5:13 PM EST
Civil Twilight 6:42 AM EST 5:41 PM EST
Nautical Twilight 6:11 AM EST 6:12 PM EST
Astronomical Twilight 5:40 AM EST 6:42 PM EST
Moon 6:59 AM EST (11/26) 5:32 PM EST (11/26)
Length of Visible Light 10h 58m
Length of Day
10h 03m
New Moon, 0% of the Moon is Illuminated
Nov 26
New Moon
Dec 4
First Quarter
Dec 12
Full
Dec 18
Last Quarter
Dec 26
New

Hourly Weather History & Observations

Time (EST) Temp. Dew Point Humidity Pressure Visibility Wind Dir Wind Speed Gust Speed Precip Events Conditions
12:54 AM 39.9 °F 35.1 °F 83% 29.96 in 9.0 mi Calm Calm - N/A   Clear
1:54 AM 39.0 °F 35.1 °F 86% 29.97 in 10.0 mi Calm Calm - N/A   Clear
2:54 AM 37.9 °F 33.1 °F 83% 29.98 in 9.0 mi Calm Calm - N/A   Clear
3:54 AM 37.0 °F 33.1 °F 86% 29.99 in 10.0 mi Calm Calm - N/A   Clear
4:54 AM 37.0 °F 33.1 °F 86% 29.99 in 9.0 mi Calm Calm - N/A   Clear
6:54 AM 37.0 °F 33.1 °F 86% 30.02 in 8.0 mi Calm Calm - N/A   Clear
7:54 AM 37.0 °F 33.1 °F 86% 30.05 in 7.0 mi Calm Calm - N/A   Clear
8:54 AM 46.0 °F 39.9 °F 79% 30.06 in 8.0 mi Calm Calm - N/A   Clear
9:54 AM 52.0 °F 42.1 °F 69% 30.07 in 10.0 mi South 3.5 mph - N/A   Clear
10:54 AM 59.0 °F 43.0 °F 55% 30.06 in 10.0 mi Variable 3.5 mph - N/A   Clear
11:54 AM 61.0 °F 42.1 °F 50% 30.04 in 10.0 mi South 3.5 mph - N/A   Clear
12:54 PM 62.1 °F 37.9 °F 41% 30.02 in 10.0 mi South 8.1 mph - N/A   Clear
1:54 PM 63.0 °F 39.0 °F 41% 30.02 in 10.0 mi Variable 3.5 mph - N/A   Clear
3:54 PM 63.0 °F 36.0 °F 37% 30.02 in 10.0 mi Calm Calm - N/A   Clear
4:54 PM 60.1 °F 37.0 °F 42% 30.04 in 10.0 mi Calm Calm - N/A   Clear
6:54 PM 53.1 °F 41.0 °F 64% 30.07 in 10.0 mi Calm Calm - N/A   Clear
8:54 PM 48.9 °F 41.0 °F 74% 30.06 in 10.0 mi SSW 3.5 mph - N/A   Clear
9:54 PM 48.9 °F 41.0 °F 74% 30.05 in 10.0 mi SSW 3.5 mph - N/A   Clear
10:54 PM 51.1 °F 42.1 °F 71% 30.07 in 10.0 mi SW 3.5 mph - N/A   Clear
11:54 PM 51.1 °F 42.1 °F 71% 30.06 in 10.0 mi SSW 3.5 mph - N/A   Clear